Williamtown, Australia

2:03 PM AEST on April 29, 2017 (GMT +1000)
Williamtown Military

Weather History for YWLM - December, 2012

Change the Weather History Date:

Saturday, December 22, 2012

  Actual Average Record
Temperature  
Mean Temperature 75 °F -  
Max Temperature 82 °F - - ()
Min Temperature 68 °F - - ()
Cooling Degree Days 10    
Growing Degree Days 25 (Base 50)    
Moisture  
Dew Point 67 °F    
Average Humidity 75    
Maximum Humidity 88    
Minimum Humidity 53    
Precipitation  
Precipitation 0.00 in - - ()
Sea Level Pressure  
Sea Level Pressure 29.99 in    
Wind  
Wind Speed 8 mph ()    
Max Wind Speed 17 mph    
Max Gust Speed -    
Visibility 6.2 miles    
Events Rain    
T = Trace of Precipitation, MM = Missing Value Source: Averaged Metar Reports

Daily Weather History Graph

Daily Weather History Graph

Search for Another Location

Airport or City:

Trip Planner

Search our weather history database for the weather conditions in past years. The results will help you decide how hot, cold, wet, or windy it might be!

Date:

Astronomy

Dec. 22, 2012 Rise Set
Actual Time 5:41 AM AEDT 8:00 PM AEDT
Civil Twilight 5:13 AM AEDT 8:29 PM AEDT
Nautical Twilight 4:38 AM AEDT 9:04 PM AEDT
Astronomical Twilight 3:59 AM AEDT 9:42 PM AEDT
Moon 2:38 PM AEDT (12/22) 1:19 AM AEDT (12/22)
Length of Visible Light 15h 16m
Length of Day
14h 18m
Waxing Gibbous, 67% of the Moon is Illuminated
Dec 22
Waxing Gibbous
Dec 28
Full
Jan 5
Last Quarter
Jan 12
New
Jan 19
First Quarter

Hourly Weather History & Observations

Time (AEDT) Temp. Heat Index Dew Point Humidity Pressure Visibility Wind Dir Wind Speed Gust Speed Precip Events Conditions
12:00 AM 70 °F - 64 °F 75% 30.04 in - East 6.9 mph - -  
12:00 AM 69.8 °F - 64.4 °F 83% 30.04 in 6.2 mi East 6.9 mph - N/A   Overcast
12:30 AM 69.8 °F - 64.4 °F 83% 30.01 in 6.2 mi East 5.8 mph - N/A   Overcast
1:00 AM 69.8 °F - 64.4 °F 83% 30.01 in 6.2 mi East 5.8 mph - N/A   Overcast
1:30 AM 69.8 °F - 64.4 °F 83% 30.01 in 6.2 mi ESE 5.8 mph - N/A   Overcast
2:00 AM 69 °F - 65 °F 81% 30.01 in - ESE 4.6 mph - -  
2:00 AM 69.8 °F - 64.4 °F 83% 30.01 in 6.2 mi ESE 4.6 mph - N/A   Overcast
2:30 AM 68.0 °F - 64.4 °F 88% 29.98 in 6.2 mi SE 4.6 mph - N/A   Overcast
3:00 AM 69 °F - 65 °F 83% 29.99 in - SE 4.6 mph - -  
3:00 AM 69.8 °F - 64.4 °F 83% 29.98 in 6.2 mi SE 4.6 mph - N/A   Overcast
3:30 AM 69.8 °F - 64.4 °F 83% 29.98 in 6.2 mi ESE 5.8 mph - N/A   Overcast
4:00 AM 69.8 °F - 64.4 °F 83% 29.98 in 6.2 mi SSE 5.8 mph - N/A   Overcast
5:00 AM 70 °F - 65 °F 79% 29.99 in - ESE 6.9 mph - -  
5:00 AM 69.8 °F - 64.4 °F 83% 29.98 in 6.2 mi ESE 6.9 mph - N/A   Overcast
6:00 AM 70 °F - 65 °F 79% 30.00 in - SSE 5.8 mph - -   Overcast
6:00 AM 69.8 °F - 64.4 °F 83% 29.98 in 6.2 mi SSE 5.8 mph - N/A   Overcast
6:30 AM 69.8 °F - 66.2 °F 88% 30.01 in 6.2 mi SE 5.8 mph - N/A   Overcast
7:00 AM 71.6 °F - 64.4 °F 78% 30.01 in 6.2 mi SE 8.1 mph - N/A   Overcast
7:30 AM 71.6 °F - 64.4 °F 78% 30.01 in 6.2 mi SE 6.9 mph - N/A   Overcast
8:00 AM 71 °F - 66 °F 78% 30.03 in - SE 5.8 mph - -  
8:00 AM 71.6 °F - 66.2 °F 83% 30.01 in 5.6 mi SE 5.8 mph - N/A   Drizzle
8:30 AM 71.6 °F - 66.2 °F 83% 30.04 in 6.2 mi SSE 5.8 mph - N/A   Overcast
9:00 AM 73 °F - 66 °F 72% 30.04 in - SE 9.2 mph - -   Overcast
9:00 AM 73.4 °F - 66.2 °F 78% 30.04 in 6.2 mi SE 9.2 mph - N/A   Overcast
9:30 AM 73.4 °F - 66.2 °F 78% 30.04 in 6.2 mi SE 6.9 mph - N/A   Overcast
10:00 AM 75.2 °F - 66.2 °F 73% 30.04 in 6.2 mi SE 8.1 mph - N/A Rain Light Rain Showers
10:30 AM 75.2 °F - 68.0 °F 78% 30.04 in 6.2 mi SE 10.4 mph - N/A   Overcast
11:00 AM 76 °F - 67 °F 68% 30.04 in - East 9.2 mph - -  
11:00 AM 75.2 °F - 68.0 °F 78% 30.04 in 6.2 mi East 9.2 mph - N/A   Overcast
11:30 AM 77.0 °F - 68.0 °F 74% 30.04 in 6.2 mi East 10.4 mph - N/A   Overcast
12:00 PM 76 °F - 68 °F 70% 30.04 in - East 11.5 mph - -   Overcast
12:00 PM 77.0 °F - 68.0 °F 74% 30.04 in 6.2 mi East 11.5 mph - N/A   Overcast
12:30 PM 77.0 °F - 66.2 °F 69% 30.01 in 6.2 mi NE 11.5 mph - N/A   Overcast
1:00 PM 78.8 °F - 66.2 °F 65% 30.01 in 6.2 mi ENE 11.5 mph - N/A   Overcast
1:30 PM 80.6 °F 83.2 °F 68.0 °F 65% 29.98 in 6.2 mi NE 13.8 mph - N/A   Scattered Clouds
2:00 PM 82 °F - 68 °F 53% 29.99 in - ESE 16.1 mph - -  
2:00 PM 82.4 °F 85.4 °F 68.0 °F 62% 29.98 in 6.2 mi ESE 16.1 mph - N/A   Unknown
2:30 PM 80.6 °F 83.2 °F 68.0 °F 65% 29.98 in 6.2 mi ESE 15.0 mph - N/A   Scattered Clouds
3:00 PM 82 °F - 69 °F 56% 29.97 in - East 16.1 mph - -  
3:00 PM 82.4 °F 86.3 °F 69.8 °F 66% 29.95 in 6.2 mi East 16.1 mph - N/A   Scattered Clouds
3:30 PM 82.4 °F 85.4 °F 68.0 °F 62% 29.95 in 6.2 mi East 16.1 mph - N/A   Scattered Clouds
4:00 PM 80.6 °F 83.2 °F 68.0 °F 65% 29.95 in 6.2 mi East 17.3 mph - N/A   Scattered Clouds
4:30 PM 80.6 °F 83.9 °F 69.8 °F 70% 29.92 in 6.2 mi ESE 16.1 mph - N/A   Mostly Cloudy
5:00 PM 81 °F - 69 °F 60% 29.93 in - ESE 15.0 mph - -  
5:00 PM 80.6 °F 83.9 °F 69.8 °F 70% 29.92 in 6.2 mi ESE 15.0 mph - N/A   Scattered Clouds
5:30 PM 80.6 °F 83.2 °F 68.0 °F 65% 29.92 in 6.2 mi East 16.1 mph - N/A   Unknown
6:00 PM 80 °F - 67 °F 57% 29.93 in - ENE 17.3 mph - -  
6:00 PM 80.6 °F 83.2 °F 68.0 °F 65% 29.92 in 6.2 mi ENE 17.3 mph - N/A   Unknown
6:30 PM 78.8 °F - 68.0 °F 69% 29.92 in 6.2 mi ENE 17.3 mph - N/A   Unknown
7:00 PM 78.8 °F - 69.8 °F 74% 29.95 in 6.2 mi ENE 13.8 mph - N/A   Unknown
7:30 PM 77.0 °F - 69.8 °F 78% 29.95 in 6.2 mi ENE 11.5 mph - N/A   Unknown
8:00 PM 76 °F - 68 °F 71% 29.95 in - ENE 15.0 mph - -  
8:00 PM 77.0 °F - 68.0 °F 74% 29.95 in 6.2 mi ENE 15.0 mph - N/A   Unknown
8:30 PM 75.2 °F - 68.0 °F 78% 29.95 in 6.2 mi ENE 12.7 mph - N/A   Unknown
9:00 PM 75 °F - 68 °F 74% 29.96 in - NE 12.7 mph - -  
9:00 PM 75.2 °F - 68.0 °F 78% 29.95 in 6.2 mi NE 12.7 mph - N/A   Unknown
9:30 PM 75.2 °F - 68.0 °F 78% 29.95 in 6.2 mi NE 10.4 mph - N/A   Unknown
10:00 PM 73.4 °F - 68.0 °F 83% 29.95 in 6.2 mi NE 10.4 mph - N/A   Unknown
10:30 PM 73.4 °F - 68.0 °F 83% 29.98 in 6.2 mi NE 10.4 mph - N/A   Unknown
11:00 PM 73 °F - 68 °F 80% 29.98 in - NE 8.1 mph - -  
11:00 PM 73.4 °F - 68.0 °F 83% 29.98 in 6.2 mi NE 8.1 mph - N/A   Unknown